Voltar ao catálogo

ELECTRON KICK STAGE R/B

AtivoSSO
NORAD 54228·ROCKET BODY·🇺🇸 United States

Lançado Nov 4, 2022 de Rocket Lab Launch Complex 1

Loading…

Próximas Passagens (próximas 24 horas)

TLE

AtualizadoSource: Space-Track

Época: Sep 13, 2026, 18:41 UTC

1 54228U 22147B   26256.77911926  .00016665  00000-0  47842-3 0  9992
2 54228  97.6297 278.8905 0007257 152.4748 207.6881 15.35906012212676

Acompanhe ELECTRON KICK STAGE R/B em tempo real com AllMySat

Download on the App Store